sat.trackr.live / text

‹ back to catalog

STARLINK-3374

NORAD 51112 · 2022-005J

PAYLOAD ACTIVE UNKNOWN

§ Identity

Operator
Country
US
Launch date
2022-01-19
Launch site
AFETR
Launch vehicle
Mass (kg)
RCS (m²)

Purposes: comms

External: N2YO · Heavens-Above · Gunter

§ Orbital elements

Epoch: 2026-05-24T19:20:52.309536Z

Period
95.44 min
Inclination
53.2127°
Eccentricity
0.0001548
Mean motion
15.08840491 rev/d
Perigee alt
538.7 km
Apogee alt
540.8 km
Semi-major
6,917.9 km
B*
-1.9694e-5
RAAN
307.3906°
Arg perigee
93.5557°
Mean anomaly
266.5612°
Rev number
24,037

§ Raw data

STARLINK-33741 51112U 22005J   26144.80616099 -.00000601  00000+0 -19694-4 0  99962 51112  53.2127 307.3906 0001548  93.5557 266.5612 15.08840491240376

JSON: /api/v1/satellites/51112 · /tle

For live sub-satellite position, see the globe view (requires WebGL).

§ Visibility from observer

Set your observer location to see the next 7 days of passes ≥ 10°. The values pass through the URL so the page stays shareable.

No JS? Fill the form by hand. The geolocation button needs JavaScript.